Time,TemperatureF,DewpointF,PressureIn,WindDirection,WindDirectionDegrees,WindSpeedMPH,WindSpeedGustMPH,Humidity,HourlyPrecipIn,Conditions,Clouds,dailyrainin,SoftwareType,DateUTC
2013-06-03 00:05:00,65.9,57.0,29.72,WNW,291,5.0,9.0,73,0.00,,,0.00,weatherlink.com 1.10,2013-06-03 04:05:00,
2013-06-03 00:20:00,65.5,57.0,29.72,WNW,302,1.0,8.0,75,0.00,,,0.00,weatherlink.com 1.10,2013-06-03 04:20:00,
2013-06-03 00:35:00,64.9,58.0,29.73,NNE,17,8.0,11.0,78,0.00,,,0.00,weatherlink.com 1.10,2013-06-03 04:35:00,
2013-06-03 00:50:00,63.1,58.0,29.73,NE,40,5.0,12.0,82,0.00,,,0.00,weatherlink.com 1.10,2013-06-03 04:50:00,
2013-06-03 01:05:00,61.7,57.0,29.74,NNE,24,7.0,11.0,84,0.00,,,0.00,weatherlink.com 1.10,2013-06-03 05:05:00,
2013-06-03 01:20:00,60.2,56.0,29.74,NE,46,7.0,11.0,85,0.00,,,0.00,weatherlink.com 1.10,2013-06-03 05:20:00,
2013-06-03 01:35:00,59.0,55.0,29.74,ENE,63,7.0,12.0,85,0.00,,,0.00,weatherlink.com 1.10,2013-06-03 05:35:00,
2013-06-03 01:50:00,57.9,54.0,29.74,ENE,60,4.0,11.0,86,0.00,,,0.00,weatherlink.com 1.10,2013-06-03 05:50:00,
2013-06-03 02:06:00,57.6,54.0,29.75,NE,45,5.0,9.0,86,0.00,,,0.00,weatherlink.com 1.10,2013-06-03 06:06:00,
2013-06-03 02:21:00,57.3,53.0,29.76,North,5,5.0,9.0,86,0.00,,,0.00,weatherlink.com 1.10,2013-06-03 06:21:00,
2013-06-03 02:36:00,56.7,53.0,29.76,NNE,25,3.0,8.0,87,0.00,,,0.00,weatherlink.com 1.10,2013-06-03 06:36:00,
2013-06-03 02:51:00,56.2,52.0,29.77,NNE,24,2.0,7.0,87,0.00,,,0.00,weatherlink.com 1.10,2013-06-03 06:51:00,
2013-06-03 03:06:00,55.8,52.0,29.77,ENE,61,8.0,9.0,86,0.00,,,0.00,weatherlink.com 1.10,2013-06-03 07:06:00,
2013-06-03 03:21:00,55.4,52.0,29.77,NNE,20,0.0,7.0,87,0.00,,,0.00,weatherlink.com 1.10,2013-06-03 07:21:00,
2013-06-03 03:36:00,55.1,51.0,29.76,ENE,60,4.0,7.0,87,0.00,,,0.00,weatherlink.com 1.10,2013-06-03 07:36:00,
2013-06-03 03:51:00,55.0,52.0,29.76,ENE,66,2.0,6.0,88,0.00,,,0.00,weatherlink.com 1.10,2013-06-03 07:51:00,
2013-06-03 04:06:00,54.8,51.0,29.75,NE,38,0.0,7.0,87,0.00,,,0.00,weatherlink.com 1.10,2013-06-03 08:06:00,
2013-06-03 04:21:00,54.5,51.0,29.76,ENE,63,6.0,6.0,88,0.00,,,0.00,weatherlink.com 1.10,2013-06-03 08:21:00,
2013-06-03 04:51:00,53.4,50.0,29.77,ENE,71,3.0,9.0,87,0.00,,,0.00,weatherlink.com 1.10,2013-06-03 08:51:00,
2013-06-03 05:06:00,53.2,50.0,29.77,NNE,17,2.0,8.0,87,0.00,,,0.00,weatherlink.com 1.10,2013-06-03 09:06:00,
2013-06-03 05:21:00,53.0,49.0,29.78,NNE,19,2.0,6.0,87,0.00,,,0.00,weatherlink.com 1.10,2013-06-03 09:21:00,
2013-06-03 05:36:00,52.7,49.0,29.78,ENE,71,1.0,7.0,87,0.00,,,0.00,weatherlink.com 1.10,2013-06-03 09:36:00,
2013-06-03 05:51:00,52.4,49.0,29.78,ENE,63,1.0,7.0,87,0.00,,,0.00,weatherlink.com 1.10,2013-06-03 09:51:00,
2013-06-03 06:06:00,52.1,48.0,29.80,NE,40,5.0,7.0,86,0.00,,,0.00,weatherlink.com 1.10,2013-06-03 10:06:00,
2013-06-03 06:21:00,51.5,48.0,29.80,NNE,28,4.0,7.0,87,0.00,,,0.00,weatherlink.com 1.10,2013-06-03 10:21:00,
2013-06-03 06:36:00,51.2,48.0,29.79,ENE,75,3.0,8.0,87,0.00,,,0.00,weatherlink.com 1.10,2013-06-03 10:36:00,
2013-06-03 06:51:00,51.2,47.0,29.80,NE,35,1.0,7.0,86,0.00,,,0.00,weatherlink.com 1.10,2013-06-03 10:51:00,
2013-06-03 07:06:00,51.3,47.0,29.81,NNE,24,2.0,7.0,86,0.00,,,0.00,weatherlink.com 1.10,2013-06-03 11:06:00,
2013-06-03 07:21:00,51.1,46.0,29.82,NNE,17,2.0,9.0,84,0.00,,,0.00,weatherlink.com 1.10,2013-06-03 11:21:00,
2013-06-03 07:36:00,51.1,47.0,29.82,ENE,75,2.0,9.0,85,0.00,,,0.00,weatherlink.com 1.10,2013-06-03 11:36:00,
2013-06-03 07:51:00,50.8,47.0,29.82,NE,47,1.0,9.0,85,0.00,,,0.00,weatherlink.com 1.10,2013-06-03 11:51:00,
2013-06-03 08:06:00,51.0,47.0,29.82,NNE,15,2.0,6.0,85,0.00,,,0.00,weatherlink.com 1.10,2013-06-03 12:06:00,
2013-06-03 08:21:00,51.0,47.0,29.82,ENE,57,2.0,7.0,86,0.00,,,0.00,weatherlink.com 1.10,2013-06-03 12:21:00,
2013-06-03 08:36:00,51.2,48.0,29.82,NNE,26,4.0,7.0,87,0.00,,,0.00,weatherlink.com 1.10,2013-06-03 12:36:00,
2013-06-03 08:45:00,51.3,47.3,29.83,NE,54,4.0,4.0,86,0.00,,,0.00,Wunderground v.1.15,2013-06-03 12:45:00,
2013-06-03 08:50:00,51.5,47.8,29.83,NNE,32,3.0,6.0,87,0.00,,,0.00,Wunderground v.1.15,2013-06-03 12:50:00,
2013-06-03 09:06:00,51.7,48.0,29.83,WNW,298,4.0,9.0,86,0.00,,,0.00,weatherlink.com 1.10,2013-06-03 13:06:00,
2013-06-03 09:21:00,51.7,47.0,29.83,NE,38,7.0,10.0,85,0.00,,,0.00,weatherlink.com 1.10,2013-06-03 13:21:00,
2013-06-03 09:36:00,51.7,47.0,29.84,North,5,5.0,10.0,84,0.00,,,0.00,weatherlink.com 1.10,2013-06-03 13:36:00,
2013-06-03 09:51:00,51.4,47.0,29.84,NW,311,7.0,10.0,84,0.00,,,0.00,weatherlink.com 1.10,2013-06-03 13:51:00,
2013-06-03 10:06:00,51.7,47.0,29.84,West,263,8.0,10.0,84,0.00,,,0.00,weatherlink.com 1.10,2013-06-03 14:06:00,
2013-06-03 10:21:00,51.7,47.0,29.84,NNE,20,6.0,11.0,84,0.00,,,0.00,weatherlink.com 1.10,2013-06-03 14:21:00,
2013-06-03 10:36:00,51.9,46.0,29.84,West,260,4.0,12.0,81,0.00,,,0.00,weatherlink.com 1.10,2013-06-03 14:36:00,
2013-06-03 11:06:00,53.7,48.0,29.85,West,281,7.0,9.0,82,0.00,,,0.00,weatherlink.com 1.10,2013-06-03 15:06:00,
2013-06-03 11:21:00,54.0,48.0,29.84,WNW,286,9.0,12.0,79,0.00,,,0.00,weatherlink.com 1.10,2013-06-03 15:21:00,
2013-06-03 11:36:00,54.9,48.0,29.84,North,355,6.0,11.0,78,0.00,,,0.00,weatherlink.com 1.10,2013-06-03 15:36:00,
2013-06-03 11:51:00,54.3,48.0,29.84,WNW,293,8.0,11.0,78,0.00,,,0.00,weatherlink.com 1.10,2013-06-03 15:51:00,
2013-06-03 12:06:00,55.1,47.0,29.84,NW,310,8.0,12.0,75,0.00,,,0.00,weatherlink.com 1.10,2013-06-03 16:06:00,
2013-06-03 12:21:00,55.6,47.0,29.84,NW,308,8.0,12.0,74,0.00,,,0.00,weatherlink.com 1.10,2013-06-03 16:21:00,
2013-06-03 12:37:00,57.3,48.0,29.84,SW,221,11.0,11.0,70,0.00,,,0.00,weatherlink.com 1.10,2013-06-03 16:37:00,
2013-06-03 12:51:00,57.1,47.0,29.84,WNW,300,0.0,9.0,69,0.00,,,0.00,weatherlink.com 1.10,2013-06-03 16:51:00,
2013-06-03 13:06:00,57.1,47.0,29.84,WNW,290,5.0,9.0,68,0.00,,,0.00,weatherlink.com 1.10,2013-06-03 17:06:00,
2013-06-03 13:22:00,59.2,47.0,29.84,North,9,4.0,11.0,65,0.00,,,0.00,weatherlink.com 1.10,2013-06-03 17:22:00,
2013-06-03 13:36:00,59.6,48.0,29.83,WNW,285,8.0,10.0,66,0.00,,,0.00,weatherlink.com 1.10,2013-06-03 17:36:00,
2013-06-03 13:51:00,59.5,46.0,29.83,NW,323,5.0,11.0,62,0.00,,,0.00,weatherlink.com 1.10,2013-06-03 17:51:00,
2013-06-03 14:06:00,60.5,48.0,29.83,West,273,11.0,13.0,63,0.00,,,0.00,weatherlink.com 1.10,2013-06-03 18:06:00,
2013-06-03 14:22:00,60.2,46.0,29.83,North,5,8.0,14.0,59,0.00,,,0.00,weatherlink.com 1.10,2013-06-03 18:22:00,
2013-06-03 14:36:00,61.1,47.0,29.83,North,355,10.0,13.0,60,0.00,,,0.00,weatherlink.com 1.10,2013-06-03 18:36:00,
2013-06-03 14:51:00,60.8,47.0,29.83,NNE,19,7.0,16.0,60,0.00,,,0.00,weatherlink.com 1.10,2013-06-03 18:51:00,
2013-06-03 15:06:00,62.0,47.0,29.83,North,350,7.0,11.0,58,0.00,,,0.00,weatherlink.com 1.10,2013-06-03 19:06:00,
2013-06-03 15:21:00,61.4,45.0,29.82,North,350,1.0,13.0,56,0.00,,,0.00,weatherlink.com 1.10,2013-06-03 19:21:00,
2013-06-03 15:37:00,62.3,45.0,29.82,WNW,292,5.0,15.0,54,0.00,,,0.00,weatherlink.com 1.10,2013-06-03 19:37:00,
2013-06-03 15:52:00,62.3,46.0,29.82,NW,311,7.0,11.0,55,0.00,,,0.00,weatherlink.com 1.10,2013-06-03 19:52:00,
2013-06-03 16:07:00,63.4,46.0,29.82,WNW,296,9.0,13.0,53,0.00,,,0.00,weatherlink.com 1.10,2013-06-03 20:07:00,
2013-06-03 16:22:00,62.9,46.0,29.82,NW,311,8.0,16.0,54,0.00,,,0.00,weatherlink.com 1.10,2013-06-03 20:22:00,
2013-06-03 16:37:00,63.0,44.0,29.81,North,360,5.0,18.0,51,0.00,,,0.00,weatherlink.com 1.10,2013-06-03 20:37:00,
2013-06-03 16:52:00,63.6,45.0,29.81,West,275,10.0,14.0,52,0.00,,,0.00,weatherlink.com 1.10,2013-06-03 20:52:00,
2013-06-03 17:07:00,63.6,45.0,29.82,West,267,5.0,11.0,52,0.00,,,0.00,weatherlink.com 1.10,2013-06-03 21:07:00,
2013-06-03 17:22:00,63.5,47.0,29.81,North,360,6.0,10.0,55,0.00,,,0.00,weatherlink.com 1.10,2013-06-03 21:22:00,
2013-06-03 17:37:00,63.4,49.0,29.82,NNE,17,2.0,12.0,59,0.00,,,0.00,weatherlink.com 1.10,2013-06-03 21:37:00,
2013-06-03 17:52:00,63.4,49.0,29.82,North,360,5.0,12.0,60,0.00,,,0.00,weatherlink.com 1.10,2013-06-03 21:52:00,
2013-06-03 18:07:00,63.4,50.0,29.82,NNW,345,11.0,11.0,62,0.00,,,0.00,weatherlink.com 1.10,2013-06-03 22:07:00,
2013-06-03 18:22:00,63.7,50.0,29.82,North,9,5.0,9.0,61,0.00,,,0.00,weatherlink.com 1.10,2013-06-03 22:22:00,
2013-06-03 18:37:00,62.3,48.0,29.82,ENE,77,4.0,13.0,61,0.00,,,0.00,weatherlink.com 1.10,2013-06-03 22:37:00,
2013-06-03 18:52:00,62.2,49.0,29.82,NE,34,4.0,14.0,63,0.00,,,0.00,weatherlink.com 1.10,2013-06-03 22:52:00,
2013-06-03 19:07:00,61.2,48.0,29.82,NE,42,8.0,11.0,63,0.00,,,0.00,weatherlink.com 1.10,2013-06-03 23:07:00,
2013-06-03 19:22:00,60.6,48.0,29.83,North,10,5.0,8.0,64,0.00,,,0.00,weatherlink.com 1.10,2013-06-03 23:22:00,
2013-06-03 19:37:00,60.5,49.0,29.83,North,5,9.0,9.0,65,0.00,,,0.00,weatherlink.com 1.10,2013-06-03 23:37:00,
2013-06-03 19:52:00,59.6,48.0,29.84,NE,49,6.0,10.0,66,0.00,,,0.00,weatherlink.com 1.10,2013-06-03 23:52:00,
2013-06-03 20:07:00,58.9,47.0,29.85,NNE,32,6.0,9.0,66,0.00,,,0.00,weatherlink.com 1.10,2013-06-04 00:07:00,
2013-06-03 20:22:00,58.2,47.0,29.85,NE,54,4.0,7.0,66,0.00,,,0.00,weatherlink.com 1.10,2013-06-04 00:22:00,
2013-06-03 20:37:00,57.2,46.0,29.85,ENE,71,0.0,5.0,67,0.00,,,0.00,weatherlink.com 1.10,2013-06-04 00:37:00,
2013-06-03 20:52:00,56.2,45.0,29.85,ENE,57,0.0,5.0,67,0.00,,,0.00,weatherlink.com 1.10,2013-06-04 00:52:00,
2013-06-03 21:07:00,55.6,45.0,29.86,NE,50,2.0,6.0,68,0.00,,,0.00,weatherlink.com 1.10,2013-06-04 01:07:00,
2013-06-03 21:22:00,55.0,45.0,29.86,ENE,61,0.0,2.0,68,0.00,,,0.00,weatherlink.com 1.10,2013-06-04 01:22:00,
2013-06-03 21:37:00,54.2,45.0,29.86,ENE,61,0.0,1.0,70,0.00,,,0.00,weatherlink.com 1.10,2013-06-04 01:37:00,
2013-06-03 21:52:00,53.3,44.0,29.87,ENE,61,0.0,2.0,72,0.00,,,0.00,weatherlink.com 1.10,2013-06-04 01:52:00,
2013-06-03 22:22:00,53.4,45.0,29.88,East,80,0.0,1.0,72,0.00,,,0.00,weatherlink.com 1.10,2013-06-04 02:22:00,
2013-06-03 22:37:00,52.6,45.0,29.88,WNW,299,2.0,5.0,74,0.00,,,0.00,weatherlink.com 1.10,2013-06-04 02:37:00,
2013-06-03 22:52:00,53.2,45.0,29.88,NW,319,1.0,5.0,73,0.00,,,0.00,weatherlink.com 1.10,2013-06-04 02:52:00,
2013-06-03 23:07:00,53.4,46.0,29.89,NW,308,0.0,7.0,75,0.00,,,0.00,weatherlink.com 1.10,2013-06-04 03:07:00,
2013-06-03 23:22:00,52.9,46.0,29.89,WNW,296,4.0,5.0,77,0.00,,,0.00,weatherlink.com 1.10,2013-06-04 03:22:00,
2013-06-03 23:37:00,52.5,46.0,29.89,NNE,13,3.0,8.0,79,0.00,,,0.00,weatherlink.com 1.10,2013-06-04 03:37:00,
2013-06-03 23:52:00,51.9,47.0,29.90,NNE,33,1.0,7.0,83,0.00,,,0.00,weatherlink.com 1.10,2013-06-04 03:52:00,